Tracking 27111 objects as of 28-Mar-2023
HD Live streaming from Space Station
objects crossing your sky now

CZ-2D DEB

Track CZ-2D DEB now!
10-day predictions


NORAD ID: 43426
Int'l Code: 2015-078B
Perigee: 480.9 km
Apogee: 702.0 km
Inclination: 97.3 °
Period: 96.4 minutes
Semi major axis: 6962 km
RCS: Unknown
Launch date: December 17, 2015
Source: People's Republic of China (PRC)
Launch site: Jiuquan Satellite Launch Center, China (JSC)

Note: This is SATELLITE DEBRIS
Your satellite tracking list
Your tracking list is empty




NASA's NSSDC Master Catalog

Two Line Element Set (TLE):
1 43426U 15078B   23086.50557386  .00028183  00000-0  20349-2 0  9990
2 43426  97.3060 280.2332 0158771  92.4931 269.4477 14.94384122390259
Source of the keplerian elements: AFSPC